Hourly Data Report for June 30, 2021

LONDON CS
ONTARIO
Current Station Operator: ECCC - MSC

43°02'00.000" N
81°09'00.000" W
278.00 m
6144478
71622
WSN

Download Data

Hourly Data (June 2021)
Hourly Data Report for June 30, 2021
TIME
LST
Temp Definition
°C
Dew Point Definition
°C
Rel Hum Definition
%
Precip. Amount Definition
mm

Wind Dir Definition
10's deg

Wind Spd Definition
km/h
Visibility Definition
km
Stn Press Definition
kPa
Hmdx Definition


Wind Chill Definition


Weather Definition


00:00 22.2 20.2 88 0.0       98.68 30   LegendNANA
01:00 22.4 20.2 88 0.0       98.59 30   LegendNANA
02:00 22.3 20.5 90 0.0       98.57 30   LegendNANA
03:00 22.6 20.7 89 0.0       98.53 31   LegendNANA
04:00 22.4 20.9 91 0.0       98.51 31   LegendNANA
05:00 22.1 21.0 93 0.0       98.49 31   LegendNANA
06:00 22.4 21.1 93 0.0       98.50 31   LegendNANA
07:00 23.1 21.1 89 0.0       98.52 32   LegendNANA
08:00 23.6 21.0 85 0.0       98.51 32   LegendNANA
09:00 24.5 20.3 78 0.0       98.51 32   LegendNANA
10:00 23.9 20.1 79 0.0       98.49 32   LegendNANA
11:00 23.5 20.3 82 0.0       98.52 31   LegendNANA
12:00 24.4 19.0 72 0.0       98.49 31   LegendNANA
13:00 25.5 18.3 65 0.0       98.42 32   LegendNANA
14:00 26.2 18.7 63 0.0       98.35 33   LegendNANA
15:00 26.1 17.4 58 0.0       98.34 32   LegendNANA
16:00 25.8 18.3 63 0.0       98.38 32   LegendNANA
17:00 25.4 17.7 62 0.0       98.33 31   LegendNANA
18:00 24.8 17.8 65 0.0       98.30 31   LegendNANA
19:00 24.3 16.4 62 0.0       98.29 29   LegendNANA
20:00 23.2 17.1 69 0.0       98.26 29   LegendNANA
21:00 21.4 17.1 76 0.0       98.30 27   LegendNANA
22:00 20.2 17.5 85 0.0       98.28 26   LegendNANA
23:00 18.8 17.4 92 0.0       98.22     LegendNANA

Notes on Data Quality.

Legend

  • E = Estimated
  • M = Missing
  • NA = Not Available*
  • [empty] = Indicates an unobserved value
Date modified: